Find Starlink 34334

NORAD ID: 64273 Int'l Des: 2025-120 Owner: SPXS Country: US Constellation: starlink operational
LEOCIRCULAR

現在のビュー

3D地球を読み込み中...

About Starlink 34334

Starlink 34334 (NORAD 64273) is a starlink constellation satellite (v2 mini) launched Jun 4, 2025 by SPXS of US. It operates in LEO, CIRCULAR orbit with a mass of 575.00 kg.

次回通過

Passes for default location (London). Set your location on the main map for personalized predictions.

高度履歴

Loading altitude history...

軌道要素

1 64273U 25120T 26262.36937595 .00020087 00000-0 60393-3 0 9998
2 64273 53.1578 294.6426 0001268 91.4259 268.6888 15.34406138 73600
Epoch: Sep 19, 2026 • Age: 45 hours

現在のステータス

高度 469.3 km
遠地点 / 近地点 N/A
速度 7.63 km/s
衛星直下点 -22.93°S, 41.08°E
打ち上げ日 Jun 4, 2025
運用期間 1.2 years
タイプ internet

技術仕様

分類 Payload
質量 575.00 kg
乾燥質量 530.00 kg
長さ 0.30 m
スパン 29.00 m
形状 ? Box + pan
製造者 SPXS
バスタイプ Starlink V2MO
フェーズステータス In Orbit
所有者/国 SPXS/US

Most Searched